Location: Aurora Center
(43.5271°N, 98.5894°W)
Time: 04:50:14
(UTC-06:00)

Vanguard 1 Rocket - Pass Details

Date: 20 July 2024
Orbit: 651 x 4217 km, 34.3° (Epoch: 05 November)

Event Time Altitude Azimuth Distance (km) Brightness Sun altitude
Rises 23:25:20 0° 259° (WSW) 3,107 10.5 -18.9°
Reaches altitude 10° 23:27:33 10° 248° (WSW) 2,341 9.6 -19.2°
Maximum altitude 23:32:17 33° 185° (S) 1,649 8.3 -19.6°
Enters shadow 23:33:28 31° 165° (SSE) 1,816 8.4 -19.7°
